Location: Wald
(31.7579°N, 86.6655°W)
Time: 21:18:18
(UTC+00:00)

Cosmos 1709 Rocket - Pass Details

Date: 14 July 2020
Orbit: 948 x 1002 km, 82.9° (Epoch: 13 August)

Event Time Altitude Azimuth Distance (km) Brightness Sun altitude
Rises 01:24:04 0° 167° (SSE) 3,673 6.6 -6.5°
Reaches altitude 10° 01:26:40 10° 161° (SSE) 2,736 5.9 -7.0°
Maximum altitude 01:32:35 45° 90° (E) 1,328 4.4 -8.1°
Drops below altitude 10° 01:38:35 10° 20° (NNE) 2,773 6.6 -9.1°
Sets 01:41:14 0° 14° (NNE) 3,729 7.3 -9.6°
